TimeMST,TemperatureF,Dew PointF,Humidity,Sea Level PressureIn,VisibilityMPH,Wind Direction,Wind SpeedMPH,Gust SpeedMPH,PrecipitationIn,Events,Conditions,WindDirDegrees,DateUTC
12:53 AM,28.0,15.1,58,29.94,10.0,SW,17.3,-,N/A,,Clear,220,2013-02-13 07:53:00
1:53 AM,28.0,15.1,58,29.91,10.0,SSW,18.4,-,N/A,,Clear,210,2013-02-13 08:53:00
2:53 AM,28.0,15.1,58,29.89,10.0,SW,15.0,-,N/A,,Clear,220,2013-02-13 09:53:00
3:53 AM,28.9,16.0,58,29.88,10.0,SW,16.1,-,N/A,,Clear,230,2013-02-13 10:53:00
4:53 AM,30.0,16.0,56,29.88,10.0,SW,18.4,-,N/A,,Mostly Cloudy,230,2013-02-13 11:53:00
5:53 AM,30.0,17.1,59,29.89,10.0,SW,13.8,-,N/A,,Overcast,230,2013-02-13 12:53:00
6:53 AM,33.1,17.1,52,29.87,10.0,WSW,13.8,-,N/A,,Overcast,240,2013-02-13 13:53:00
7:53 AM,34.0,18.0,52,29.88,10.0,West,11.5,-,N/A,,Mostly Cloudy,270,2013-02-13 14:53:00
8:53 AM,39.0,19.0,45,29.86,10.0,West,16.1,-,N/A,,Scattered Clouds,280,2013-02-13 15:53:00
9:53 AM,39.9,19.0,43,29.87,10.0,West,16.1,-,N/A,,Mostly Cloudy,270,2013-02-13 16:53:00
10:53 AM,42.1,21.0,43,29.86,10.0,WNW,15.0,-,N/A,,Overcast,300,2013-02-13 17:53:00
11:53 AM,44.1,21.9,42,29.84,10.0,NW,19.6,25.3,N/A,,Overcast,310,2013-02-13 18:53:00
12:53 PM,39.9,26.1,58,29.88,10.0,NW,33.4,40.3,N/A,,Overcast,320,2013-02-13 19:53:00
1:40 PM,37.4,30.2,75,29.82,7.0,NW,21.9,39.1,0.00,Snow,Light Snow,320,2013-02-13 20:40:00
1:53 PM,39.9,30.0,68,29.88,9.0,NW,29.9,35.7,0.00,,Overcast,320,2013-02-13 20:53:00
2:06 PM,33.8,30.2,87,29.84,1.0,North,21.9,34.5,0.00,Snow,Light Snow,350,2013-02-13 21:06:00
2:08 PM,32.0,30.2,93,29.84,0.8,North,25.3,34.5,0.00,Snow,Light Snow,350,2013-02-13 21:08:00
2:22 PM,32.0,30.2,93,29.85,0.2,North,17.3,-,0.00,Fog-Snow,Snow,350,2013-02-13 21:22:00
2:29 PM,32.0,32.0,100,29.86,0.2,NNW,16.1,-,0.02,Fog-Snow,Snow,340,2013-02-13 21:29:00
2:53 PM,30.9,30.0,96,29.96,0.5,NNW,19.6,29.9,0.04,Fog-Snow,Snow,340,2013-02-13 21:53:00
3:09 PM,32.0,30.2,93,29.88,0.8,NW,21.9,26.5,0.02,Snow,Light Snow,320,2013-02-13 22:09:00
3:28 PM,32.0,30.2,93,29.89,0.8,NW,17.3,24.2,0.03,Snow,Light Snow,320,2013-02-13 22:28:00
3:35 PM,32.0,30.2,93,29.89,0.8,NW,16.1,-,0.03,Snow,Light Snow,310,2013-02-13 22:35:00
3:38 PM,32.0,30.2,93,29.89,1.0,NW,17.3,24.2,0.03,Snow,Light Snow,320,2013-02-13 22:38:00
3:44 PM,32.0,30.2,93,29.89,2.0,NW,18.4,25.3,0.03,Snow,Light Snow,310,2013-02-13 22:44:00
3:53 PM,32.0,28.9,88,29.97,4.0,NW,20.7,25.3,0.03,Snow,Light Snow,310,2013-02-13 22:53:00
3:58 PM,30.2,30.2,100,29.89,1.8,WNW,19.6,-,0.00,Snow,Light Snow,300,2013-02-13 22:58:00
4:07 PM,30.2,30.2,100,29.89,3.0,WNW,18.4,-,0.00,Snow,Light Snow,290,2013-02-13 23:07:00
4:53 PM,30.9,28.0,89,29.97,10.0,WNW,18.4,-,0.00,,Mostly Cloudy,290,2013-02-13 23:53:00
5:53 PM,30.0,28.0,92,30.00,10.0,West,10.4,-,N/A,,Overcast,280,2013-02-14 00:53:00
6:53 PM,30.0,28.0,92,30.00,10.0,WNW,15.0,-,N/A,,Mostly Cloudy,290,2013-02-14 01:53:00
7:53 PM,30.0,28.0,92,30.02,5.0,WNW,16.1,-,0.00,Snow,Light Snow,300,2013-02-14 02:53:00
8:53 PM,28.9,27.0,92,30.02,10.0,West,13.8,-,0.00,,Overcast,280,2013-02-14 03:53:00
9:53 PM,28.9,27.0,92,30.02,10.0,West,11.5,-,N/A,,Overcast,280,2013-02-14 04:53:00
10:53 PM,28.0,26.1,92,30.02,10.0,West,10.4,-,N/A,,Overcast,270,2013-02-14 05:53:00
11:44 PM,28.4,26.6,93,29.98,10.0,NW,10.4,-,N/A,,Overcast,310,2013-02-14 06:44:00
11:53 PM,28.9,27.0,92,30.04,8.0,NW,9.2,-,N/A,,Overcast,310,2013-02-14 06:53:00